Location: Bukit Nyuki
(2.5885°N, 113.7476°E)
Time: 17:23:45
(UTC+00:00)

Cosmos 1825 Rocket - Pass Details

Date: 18 May 2021
Orbit: 604 x 630 km, 82.5° (Epoch: 20 June)

Event Time Altitude Azimuth Distance (km) Brightness Sun altitude
Exits shadow 20:34:27 85° 171° (S) 616 3.4 -24.1°
Maximum altitude 20:34:34 89° 93° (E) 614 3.4 -24.1°
Drops below altitude 10° 20:38:55 10° 4° (N) 1,965 6.4 -23.1°
Sets 20:41:08 0° 4° (N) 2,872 7.3 -22.5°
